User: anonymous   Login
Location: Sherrills_Ford_Terrell
(35.6000°N, 80.9830°W)
Time: 15:15:52
(UTC-04:00)
Language:

CZ-4B R/B - Orbit

View from above orbital plane
View from above orbital plane
View from above satellite
View from above satellite

Ground track
Ground track

The orbit data is extracted from the following two-line orbital elements,

1 29093U 06015B   17141.88389989 +.00003714 +00000-0 +89562-4 0  9990
2 29093 097.4923 252.1653 0065506 053.4080 307.3168 15.39664946613387
Epoch (UTC): 21 May 2017 21:12:48
Eccentricity: 0.0065506
inclination: 97.4923°
perigee height: 402 km
apogee height: 492 km
right ascension of ascending node: 252.1653°
argument of perigee: 53.4080°
revolutions per day: 15.39664946
mean anomaly at epoch: 307.3168°
orbit number at epoch: 61338

The dashed part of the orbit path shows where the satellite is in the earth's shadow,  

DLR